Location: Munkebjergskolens Observatorium
(55.3864°N, 10.3987°E)
Time: 04:40:46
(UTC+02:00)

CAS-6 - Pass Details

Date: 01 April 2023
Orbit: 610 x 632 km, 97.9° (Epoch: 31 May)

Event Time Altitude Azimuth Distance (km) Brightness Sun altitude
Exits shadow 23:37:24 61° 286° (WNW) 712 ? -26.1°
Drops below altitude 10° 23:41:24 10° 340° (NNW) 2,014 ? -26.4°
Sets 23:43:38 0° 344° (NNW) 2,930 ? -26.5°
